Location: ??
(35.5653°N, 139.6194°E)
Time: 07:49:26
(UTC+00:00)

Cosmos 2016 Rocket - Pass Details

Date: 20 November 2019
Orbit: 947 x 1000 km, 83.0° (Epoch: 05 December)

Event Time Altitude Azimuth Distance (km) Brightness Sun altitude
Rises 19:27:49 0° 183° (S) 3,648 7.1 -23.1°
Reaches altitude 10° 19:30:17 10° 182° (S) 2,712 6.4 -22.6°
Maximum altitude 19:36:31 85° 96° (E) 993 4.0 -21.4°
Drops below altitude 10° 19:42:53 10° 8° (N) 2,762 6.3 -20.1°
Sets 19:45:25 0° 8° (N) 3,719 7.0 -19.6°
